Time,TemperatureF,DewpointF,PressureIn,WindDirection,WindDirectionDegrees,WindSpeedMPH,WindSpeedGustMPH,Humidity,HourlyPrecipIn,Conditions,Clouds,dailyrainin,SolarRadiationWatts/m^2,SoftwareType,DateUTC
2013-07-30 00:08:00,70.0,52.0,-100.00,ESE,104,2.0,5.0,52,0.00,,,0.00,324.000000,,2013-07-30 00:08:00,
2013-07-30 00:11:00,67.0,53.0,-100.00,East,99,1.0,4.0,60,0.00,,,0.00,98.000000,,2013-07-30 00:11:00,
2013-07-30 00:35:00,67.0,53.0,-100.00,East,99,1.0,4.0,60,0.00,,,0.00,98.000000,,2013-07-30 00:35:00,
2013-07-30 00:51:00,67.0,53.0,-100.00,East,99,1.0,4.0,60,0.00,,,0.00,98.000000,,2013-07-30 00:51:00,
2013-07-30 00:57:00,67.0,53.0,-100.00,East,99,1.0,4.0,60,0.00,,,0.00,98.000000,,2013-07-30 00:57:00,
2013-07-30 01:07:00,67.0,53.0,-100.00,East,99,1.0,4.0,60,0.00,,,0.00,98.000000,,2013-07-30 01:07:00,
2013-07-30 01:11:00,63.0,53.0,-100.00,ESE,111,2.0,4.0,71,0.00,,,0.00,7.000000,,2013-07-30 01:11:00,
2013-07-30 01:46:00,63.0,53.0,-100.00,ESE,111,2.0,4.0,71,0.00,,,0.00,7.000000,,2013-07-30 01:46:00,
2013-07-30 02:01:00,63.0,53.0,-100.00,ESE,111,2.0,4.0,71,0.00,,,0.00,7.000000,,2013-07-30 02:01:00,
2013-07-30 02:06:00,63.0,53.0,-100.00,ESE,111,2.0,4.0,71,0.00,,,0.00,7.000000,,2013-07-30 02:06:00,
2013-07-30 02:11:00,60.0,55.0,-100.00,WNW,298,1.0,2.0,85,0.00,,,0.00,0.000000,,2013-07-30 02:11:00,
2013-07-30 02:47:00,60.0,55.0,-100.00,WNW,298,1.0,2.0,85,0.00,,,0.00,0.000000,,2013-07-30 02:47:00,
2013-07-30 02:57:00,60.0,55.0,-100.00,WNW,298,1.0,2.0,85,0.00,,,0.00,0.000000,,2013-07-30 02:57:00,
2013-07-30 03:09:00,60.0,55.0,-100.00,WNW,298,1.0,2.0,85,0.00,,,0.00,0.000000,,2013-07-30 03:09:00,
2013-07-30 03:11:00,57.0,55.0,-100.00,NW,326,1.0,2.0,93,0.00,,,0.00,0.000000,,2013-07-30 03:11:00,
2013-07-30 03:49:00,57.0,55.0,-100.00,NW,326,1.0,2.0,93,0.00,,,0.00,0.000000,,2013-07-30 03:49:00,
2013-07-30 03:56:00,57.0,55.0,-100.00,NW,326,1.0,2.0,93,0.00,,,0.00,0.000000,,2013-07-30 03:56:00,
2013-07-30 04:03:00,57.0,55.0,-100.00,NW,326,1.0,2.0,93,0.00,,,0.00,0.000000,,2013-07-30 04:03:00,
2013-07-30 04:11:00,56.0,55.0,-100.00,West,281,0.0,1.0,95,0.00,,,0.00,0.000000,,2013-07-30 04:11:00,
2013-07-30 04:43:00,56.0,55.0,-100.00,West,281,0.0,1.0,95,0.00,,,0.00,0.000000,,2013-07-30 04:43:00,
2013-07-30 04:53:00,56.0,55.0,-100.00,West,281,0.0,1.0,95,0.00,,,0.00,0.000000,,2013-07-30 04:53:00,
2013-07-30 05:03:00,56.0,55.0,-100.00,West,281,0.0,1.0,95,0.00,,,0.00,0.000000,,2013-07-30 05:03:00,
2013-07-30 05:11:00,55.0,54.0,-100.00,North,350,0.0,0.0,96,0.00,,,0.00,0.000000,,2013-07-30 05:11:00,
2013-07-30 05:45:00,55.0,54.0,-100.00,North,350,0.0,0.0,96,0.00,,,0.00,0.000000,,2013-07-30 05:45:00,
2013-07-30 05:53:00,55.0,54.0,-100.00,North,350,0.0,0.0,96,0.00,,,0.00,0.000000,,2013-07-30 05:53:00,
2013-07-30 06:03:00,55.0,54.0,-100.00,North,350,0.0,0.0,96,0.00,,,0.00,0.000000,,2013-07-30 06:03:00,
2013-07-30 06:11:00,54.0,53.0,-100.00,NW,319,0.0,0.0,97,0.00,,,0.00,0.000000,,2013-07-30 06:11:00,
2013-07-30 06:43:00,54.0,53.0,-100.00,NW,319,0.0,0.0,97,0.00,,,0.00,0.000000,,2013-07-30 06:43:00,
2013-07-30 06:53:00,54.0,53.0,-100.00,NW,319,0.0,0.0,97,0.00,,,0.00,0.000000,,2013-07-30 06:53:00,
2013-07-30 07:03:00,54.0,53.0,-100.00,NW,319,0.0,0.0,97,0.00,,,0.00,0.000000,,2013-07-30 07:03:00,
2013-07-30 07:11:00,54.0,53.0,-100.00,WNW,300,0.0,0.0,98,0.00,,,0.00,0.000000,,2013-07-30 07:11:00,
2013-07-30 07:43:00,54.0,53.0,-100.00,WNW,300,0.0,0.0,98,0.00,,,0.00,0.000000,,2013-07-30 07:43:00,
2013-07-30 07:53:00,54.0,53.0,-100.00,WNW,300,0.0,0.0,98,0.00,,,0.00,0.000000,,2013-07-30 07:53:00,
2013-07-30 08:03:00,54.0,53.0,-100.00,WNW,300,0.0,0.0,98,0.00,,,0.00,0.000000,,2013-07-30 08:03:00,
2013-07-30 08:11:00,53.0,52.0,-100.00,SSE,164,0.0,0.0,98,0.00,,,0.00,0.000000,,2013-07-30 08:11:00,
2013-07-30 08:43:00,53.0,52.0,-100.00,SSE,164,0.0,0.0,98,0.00,,,0.00,0.000000,,2013-07-30 08:43:00,
2013-07-30 08:53:00,53.0,52.0,-100.00,SSE,164,0.0,0.0,98,0.00,,,0.00,0.000000,,2013-07-30 08:53:00,
2013-07-30 09:03:00,53.0,52.0,-100.00,SSE,164,0.0,0.0,98,0.00,,,0.00,0.000000,,2013-07-30 09:03:00,
2013-07-30 09:11:00,52.0,51.0,-100.00,SW,226,0.0,0.0,98,0.00,,,0.00,0.000000,,2013-07-30 09:11:00,
2013-07-30 09:43:00,52.0,51.0,-100.00,SW,226,0.0,0.0,98,0.00,,,0.00,0.000000,,2013-07-30 09:43:00,
2013-07-30 09:53:00,52.0,51.0,-100.00,SW,226,0.0,0.0,98,0.00,,,0.00,0.000000,,2013-07-30 09:53:00,
2013-07-30 10:03:00,52.0,51.0,-100.00,SW,226,0.0,0.0,98,0.00,,,0.00,0.000000,,2013-07-30 10:03:00,
2013-07-30 10:11:00,52.0,51.0,-100.00,NW,308,0.0,0.0,98,0.00,,,0.00,0.000000,,2013-07-30 10:11:00,
2013-07-30 10:44:00,52.0,51.0,-100.00,NW,308,0.0,0.0,98,0.00,,,0.00,0.000000,,2013-07-30 10:44:00,
2013-07-30 10:52:00,52.0,51.0,-100.00,NW,308,0.0,0.0,98,0.00,,,0.00,0.000000,,2013-07-30 10:52:00,
2013-07-30 11:02:00,52.0,51.0,-100.00,NW,308,0.0,0.0,98,0.00,,,0.00,0.000000,,2013-07-30 11:02:00,
2013-07-30 11:11:00,54.0,53.0,-100.00,NW,307,0.0,2.0,98,0.00,,,0.00,15.000000,,2013-07-30 11:11:00,
2013-07-30 11:43:00,54.0,53.0,-100.00,NW,307,0.0,2.0,98,0.00,,,0.00,15.000000,,2013-07-30 11:43:00,
2013-07-30 11:53:00,54.0,53.0,-100.00,NW,307,0.0,2.0,98,0.00,,,0.00,15.000000,,2013-07-30 11:53:00,
2013-07-30 12:11:00,56.0,55.0,-100.00,SW,233,0.0,0.0,98,0.00,,,0.00,89.000000,,2013-07-30 12:11:00,
2013-07-30 12:42:00,56.0,55.0,-100.00,SW,233,0.0,0.0,98,0.00,,,0.00,89.000000,,2013-07-30 12:42:00,
2013-07-30 12:53:00,56.0,55.0,-100.00,SW,233,0.0,0.0,98,0.00,,,0.00,89.000000,,2013-07-30 12:53:00,
2013-07-30 13:02:00,56.0,55.0,-100.00,SW,233,0.0,0.0,98,0.00,,,0.00,89.000000,,2013-07-30 13:02:00,
2013-07-30 13:11:00,63.0,62.0,-100.00,ENE,68,1.0,2.0,95,0.00,,,0.00,237.000000,,2013-07-30 13:11:00,
2013-07-30 13:43:00,63.0,62.0,-100.00,ENE,68,1.0,2.0,95,0.00,,,0.00,237.000000,,2013-07-30 13:43:00,
2013-07-30 13:52:00,63.0,62.0,-100.00,ENE,68,1.0,2.0,95,0.00,,,0.00,237.000000,,2013-07-30 13:52:00,
2013-07-30 14:03:00,63.0,62.0,-100.00,ENE,68,1.0,2.0,95,0.00,,,0.00,237.000000,,2013-07-30 14:03:00,
2013-07-30 14:11:00,71.0,59.0,-100.00,West,271,2.0,4.0,65,0.00,,,0.00,588.000000,,2013-07-30 14:11:00,
2013-07-30 14:43:00,71.0,59.0,-100.00,West,271,2.0,4.0,65,0.00,,,0.00,588.000000,,2013-07-30 14:43:00,
2013-07-30 14:53:00,71.0,59.0,-100.00,West,271,2.0,4.0,65,0.00,,,0.00,588.000000,,2013-07-30 14:53:00,
2013-07-30 15:02:00,71.0,59.0,-100.00,West,271,2.0,4.0,65,0.00,,,0.00,588.000000,,2013-07-30 15:02:00,
2013-07-30 15:11:00,73.0,56.0,-100.00,West,274,3.0,5.0,56,0.00,,,0.00,677.000000,,2013-07-30 15:11:00,
2013-07-30 15:44:00,73.0,56.0,-100.00,West,274,3.0,5.0,56,0.00,,,0.00,677.000000,,2013-07-30 15:44:00,
2013-07-30 15:53:00,73.0,56.0,-100.00,West,274,3.0,5.0,56,0.00,,,0.00,677.000000,,2013-07-30 15:53:00,
2013-07-30 16:02:00,73.0,56.0,-100.00,West,274,3.0,5.0,56,0.00,,,0.00,677.000000,,2013-07-30 16:02:00,
2013-07-30 16:11:00,76.0,54.0,-100.00,NNW,329,3.0,5.0,47,0.00,,,0.00,792.000000,,2013-07-30 16:11:00,
2013-07-30 16:44:00,76.0,54.0,-100.00,NNW,329,3.0,5.0,47,0.00,,,0.00,792.000000,,2013-07-30 16:44:00,
2013-07-30 16:52:00,76.0,54.0,-100.00,NNW,329,3.0,5.0,47,0.00,,,0.00,792.000000,,2013-07-30 16:52:00,
2013-07-30 17:02:00,76.0,54.0,-100.00,NNW,329,3.0,5.0,47,0.00,,,0.00,792.000000,,2013-07-30 17:02:00,
2013-07-30 17:11:00,73.0,57.0,-100.00,NE,40,2.0,4.0,58,0.00,,,0.00,497.000000,,2013-07-30 17:11:00,
2013-07-30 17:43:00,73.0,57.0,-100.00,NE,40,2.0,4.0,58,0.00,,,0.00,497.000000,,2013-07-30 17:43:00,
2013-07-30 17:54:00,73.0,57.0,-100.00,NE,40,2.0,4.0,58,0.00,,,0.00,497.000000,,2013-07-30 17:54:00,
2013-07-30 18:03:00,73.0,57.0,-100.00,NE,40,2.0,4.0,58,0.00,,,0.00,497.000000,,2013-07-30 18:03:00,
2013-07-30 18:11:00,75.0,57.0,-100.00,East,82,2.0,4.0,54,0.00,,,0.00,557.000000,,2013-07-30 18:11:00,
2013-07-30 18:43:00,75.0,57.0,-100.00,East,82,2.0,4.0,54,0.00,,,0.00,557.000000,,2013-07-30 18:43:00,
2013-07-30 18:52:00,75.0,57.0,-100.00,East,82,2.0,4.0,54,0.00,,,0.00,557.000000,,2013-07-30 18:52:00,
2013-07-30 19:03:00,75.0,57.0,-100.00,East,82,2.0,4.0,54,0.00,,,0.00,557.000000,,2013-07-30 19:03:00,
2013-07-30 19:11:00,74.0,57.0,-100.00,North,356,2.0,4.0,55,0.00,,,0.00,520.000000,,2013-07-30 19:11:00,
2013-07-30 20:02:00,74.0,57.0,-100.00,North,356,2.0,4.0,55,0.00,,,0.00,520.000000,,2013-07-30 20:02:00,
2013-07-30 20:11:00,72.0,58.0,-100.00,North,349,1.0,4.0,61,0.00,,,0.00,375.000000,,2013-07-30 20:11:00,
2013-07-30 20:43:00,72.0,58.0,-100.00,North,349,1.0,4.0,61,0.00,,,0.00,375.000000,,2013-07-30 20:43:00,
2013-07-30 20:52:00,72.0,58.0,-100.00,North,349,1.0,4.0,61,0.00,,,0.00,375.000000,,2013-07-30 20:52:00,
2013-07-30 21:02:00,72.0,58.0,-100.00,North,349,1.0,4.0,61,0.00,,,0.00,375.000000,,2013-07-30 21:02:00,
2013-07-30 21:11:00,71.0,59.0,-100.00,WNW,302,1.0,3.0,66,0.00,,,0.00,260.000000,,2013-07-30 21:11:00,
2013-07-30 21:42:00,71.0,59.0,-100.00,WNW,302,1.0,3.0,66,0.00,,,0.00,260.000000,,2013-07-30 21:42:00,
2013-07-30 21:53:00,71.0,59.0,-100.00,WNW,302,1.0,3.0,66,0.00,,,0.00,260.000000,,2013-07-30 21:53:00,
2013-07-30 22:02:00,71.0,59.0,-100.00,WNW,302,1.0,3.0,66,0.00,,,0.00,260.000000,,2013-07-30 22:02:00,
2013-07-30 22:11:00,72.0,59.0,-100.00,NNW,342,1.0,4.0,63,0.00,,,0.00,266.000000,,2013-07-30 22:11:00,
2013-07-30 22:43:00,72.0,59.0,-100.00,NNW,342,1.0,4.0,63,0.00,,,0.00,266.000000,,2013-07-30 22:43:00,
2013-07-30 22:53:00,72.0,59.0,-100.00,NNW,342,1.0,4.0,63,0.00,,,0.00,266.000000,,2013-07-30 22:53:00,
2013-07-30 23:02:00,72.0,59.0,-100.00,NNW,342,1.0,4.0,63,0.00,,,0.00,266.000000,,2013-07-30 23:02:00,
2013-07-30 23:11:00,69.0,58.0,-100.00,West,261,1.0,3.0,68,0.00,,,0.00,144.000000,,2013-07-30 23:11:00,
2013-07-30 23:32:00,69.0,58.0,-100.00,West,261,1.0,3.0,68,0.00,,,0.00,144.000000,,2013-07-30 23:32:00,
2013-07-30 23:42:00,69.0,58.0,-100.00,West,261,1.0,3.0,68,0.00,,,0.00,144.000000,,2013-07-30 23:42:00,
2013-07-30 23:53:00,69.0,58.0,-100.00,West,261,1.0,3.0,68,0.00,,,0.00,144.000000,,2013-07-30 23:53:00,